| time (UTC) | temp F | wind direction | speed MPH | gust MPH | rain 1hr in | rain 24hr in | rain mn in | humidity % | barometer mb |
| 20260504070329 | 77 | 188 | 4.0 | 11.0 | 0.00 | 0.00 | 0.00 | 33 | 1014.4 |
| 20260504050319 | 80 | 191 | 5.0 | 13.0 | 0.00 | 0.00 | 0.00 | 23 | 1013.9 |
| 20260504045827 | 80 | 218 | 7.0 | 18.0 | 0.00 | 0.00 | 0.00 | 22 | 1014.0 |
| 20260504045338 | 81 | 200 | 6.0 | 18.0 | 0.00 | 0.00 | 0.00 | 22 | 1013.9 |
| 20260504044844 | 81 | 223 | 8.0 | 14.0 | 0.00 | 0.00 | 0.00 | 21 | 1013.8 |
| 20260504044334 | 81 | 179 | 5.0 | 17.0 | 0.00 | 0.00 | 0.00 | 20 | 1013.7 |
| 20260504043841 | 81 | 177 | 7.0 | 17.0 | 0.00 | 0.00 | 0.00 | 20 | 1013.8 |
| 20260504043331 | 81 | 176 | 4.0 | 12.0 | 0.00 | 0.00 | 0.00 | 20 | 1013.9 |
| 20260504042818 | 82 | 190 | 7.0 | 12.0 | 0.00 | 0.00 | 0.00 | 19 | 1013.7 |
| 20260504042330 | 82 | 178 | 6.0 | 22.0 | 0.00 | 0.00 | 0.00 | 19 | 1013.6 |
| 20260504041822 | 82 | 199 | 6.0 | 21.0 | 0.00 | 0.00 | 0.00 | 18 | 1013.5 |
| 20260504041353 | 82 | 192 | 7.0 | 14.0 | 0.00 | 0.00 | 0.00 | 18 | 1013.4 |
| 20260504040819 | 82 | 195 | 6.0 | 14.0 | 0.00 | 0.00 | 0.00 | 17 | 1013.3 |
| 20260504040329 | 83 | 182 | 8.0 | 14.0 | 0.00 | 0.00 | 0.00 | 17 | 1013.2 |
| 20260504035836 | 83 | 209 | 6.0 | 12.0 | 0.00 | 0.00 | 0.00 | 18 | 1013.1 |
| 20260504035326 | 83 | 193 | 5.0 | 14.0 | 0.00 | 0.00 | 0.00 | 18 | 1013.1 |
| 20260504034814 | 83 | 180 | 7.0 | 14.0 | 0.00 | 0.00 | 0.00 | 17 | 1012.9 |
| 20260504034327 | 83 | 213 | 7.0 | 14.0 | 0.00 | 0.00 | 0.00 | 17 | 1012.8 |
| 20260504033855 | 83 | 192 | 8.0 | 16.0 | 0.00 | 0.00 | 0.00 | 17 | 1012.6 |
| 20260504033326 | 84 | 191 | 6.0 | 16.0 | 0.00 | 0.00 | 0.00 | 17 | 1012.4 |
| 20260504032832 | 84 | 192 | 7.0 | 13.0 | 0.00 | 0.00 | 0.00 | 16 | 1012.3 |
| 20260504032328 | 84 | 195 | 6.0 | 20.0 | 0.00 | 0.00 | 0.00 | 16 | 1012.3 |
| 20260504031817 | 84 | 198 | 9.0 | 20.0 | 0.00 | 0.00 | 0.00 | 15 | 1012.1 |
| 20260504031329 | 84 | 172 | 8.0 | 14.0 | 0.00 | 0.00 | 0.00 | 15 | 1012.0 |
| 20260504030817 | 85 | 193 | 8.0 | 14.0 | 0.00 | 0.00 | 0.00 | 15 | 1011.8 |
| 20260504030328 | 85 | 195 | 8.0 | 18.0 | 0.00 | 0.00 | 0.00 | 15 | 1011.8 |
| 20260504025834 | 85 | 200 | 7.0 | 18.0 | 0.00 | 0.00 | 0.00 | 14 | 1011.7 |
| 20260504025326 | 86 | 184 | 8.0 | 15.0 | 0.00 | 0.00 | 0.00 | 14 | 1011.4 |
| 20260504024834 | 86 | 200 | 6.0 | 16.0 | 0.00 | 0.00 | 0.00 | 14 | 1011.3 |
| 20260504024326 | 86 | 175 | 9.0 | 17.0 | 0.00 | 0.00 | 0.00 | 14 | 1011.2 |
| 20260504023854 | 86 | 233 | 7.0 | 15.0 | 0.00 | 0.00 | 0.00 | 13 | 1011.0 |
| 20260504023327 | 87 | 194 | 8.0 | 12.0 | 0.00 | 0.00 | 0.00 | 13 | 1011.1 |
| 20260504022815 | 87 | 229 | 6.0 | 19.0 | 0.00 | 0.00 | 0.00 | 13 | 1011.1 |
| 20260504022327 | 87 | 182 | 8.0 | 19.0 | 0.00 | 0.00 | 0.00 | 13 | 1010.8 |
| 20260504021814 | 87 | 191 | 7.0 | 14.0 | 0.00 | 0.00 | 0.00 | 13 | 1010.8 |
| 20260504021348 | 88 | 188 | 7.0 | 15.0 | 0.00 | 0.00 | 0.00 | 13 | 1010.8 |
| 20260504020834 | 88 | 174 | 8.0 | 19.0 | 0.00 | 0.00 | 0.00 | 12 | 1010.7 |
| 20260504020346 | 88 | 192 | 10.0 | 19.0 | 0.00 | 0.00 | 0.00 | 12 | 1010.5 |
| 20260504015831 | 89 | 182 | 8.0 | 18.0 | 0.00 | 0.00 | 0.00 | 12 | 1010.3 |
| 20260504015343 | 89 | 204 | 9.0 | 18.0 | 0.00 | 0.00 | 0.00 | 11 | 1010.4 |
| 20260504014831 | 90 | 193 | 9.0 | 18.0 | 0.00 | 0.00 | 0.00 | 11 | 1010.3 |
| 20260504014323 | 90 | 182 | 7.0 | 17.0 | 0.00 | 0.00 | 0.00 | 11 | 1010.2 |
| 20260504013830 | 91 | 207 | 6.0 | 16.0 | 0.00 | 0.00 | 0.00 | 11 | 1010.1 |
| 20260504013326 | 91 | 239 | 7.0 | 14.0 | 0.00 | 0.00 | 0.00 | 10 | 1010.0 |
| 20260504012834 | 91 | 225 | 6.0 | 14.0 | 0.00 | 0.00 | 0.00 | 10 | 1010.0 |
| 20260504012324 | 92 | 193 | 8.0 | 20.0 | 0.00 | 0.00 | 0.00 | 10 | 1010.1 |
| 20260504011831 | 92 | 205 | 7.0 | 20.0 | 0.00 | 0.00 | 0.00 | 10 | 1010.1 |
| 20260504011324 | 93 | 186 | 8.0 | 17.0 | 0.00 | 0.00 | 0.00 | 10 | 1010.0 |
| 20260504010832 | 94 | 198 | 4.0 | 16.0 | 0.00 | 0.00 | 0.00 | 10 | 1010.0 |
| 20260504010323 | 94 | 211 | 6.0 | 16.0 | 0.00 | 0.00 | 0.00 | 10 | 1010.0 |
| 20260504005830 | 94 | 240 | 6.0 | 14.0 | 0.00 | 0.00 | 0.00 | 10 | 1010.0 |
| 20260504005343 | 94 | 233 | 9.0 | 14.0 | 0.00 | 0.00 | 0.00 | 9 | 1010.0 |
| 20260504004834 | 95 | 192 | 7.0 | 14.0 | 0.00 | 0.00 | 0.00 | 10 | 1010.1 |
| 20260504004326 | 95 | 182 | 9.0 | 15.0 | 0.00 | 0.00 | 0.00 | 10 | 1010.0 |
| 20260504003834 | 95 | 190 | 3.0 | 15.0 | 0.00 | 0.00 | 0.00 | 10 | 1009.9 |
| 20260504003326 | 96 | 206 | 7.0 | 16.0 | 0.00 | 0.00 | 0.00 | 9 | 1009.9 |
| 20260504002832 | 96 | 178 | 5.0 | 14.0 | 0.00 | 0.00 | 0.00 | 10 | 1010.0 |
| 20260504002323 | 96 | 197 | 6.0 | 14.0 | 0.00 | 0.00 | 0.00 | 9 | 1009.9 |
| 20260504001851 | 96 | 211 | 6.0 | 12.0 | 0.00 | 0.00 | 0.00 | 9 | 1009.8 |
| 20260504001321 | 96 | 185 | 5.0 | 16.0 | 0.00 | 0.00 | 0.00 | 9 | 1009.8 |
| 20260504000829 | 96 | 193 | 6.0 | 14.0 | 0.00 | 0.00 | 0.00 | 10 | 1009.9 |
| 20260504000321 | 97 | 190 | 7.0 | 18.0 | 0.00 | 0.00 | 0.00 | 9 | 1009.9 |
| 20260503235848 | 98 | 182 | 10.0 | 18.0 | 0.00 | 0.00 | 0.00 | 9 | 1010.0 |
| 20260503235323 | 98 | 215 | 4.0 | 12.0 | 0.00 | 0.00 | 0.00 | 9 | 1009.9 |
| 20260503234850 | 98 | 226 | 6.0 | 12.0 | 0.00 | 0.00 | 0.00 | 8 | 1009.9 |
| 20260503234320 | 98 | 173 | 2.0 | 15.0 | 0.00 | 0.00 | 0.00 | 9 | 1009.9 |
| 20260503233827 | 98 | 163 | 7.0 | 15.0 | 0.00 | 0.00 | 0.00 | 9 | 1010.0 |
| 20260503233319 | 99 | 196 | 7.0 | 13.0 | 0.00 | 0.00 | 0.00 | 9 | 1010.0 |
| 20260503232827 | 99 | 267 | 2.0 | 10.0 | 0.00 | 0.00 | 0.00 | 10 | 1010.0 |
| 20260503232339 | 99 | 255 | 5.0 | 10.0 | 0.00 | 0.00 | 0.00 | 8 | 1010.0 |
| 20260503231825 | 99 | 186 | 5.0 | 10.0 | 0.00 | 0.00 | 0.00 | 9 | 1010.1 |
| 20260503231335 | 98 | 287 | 4.0 | 13.0 | 0.00 | 0.00 | 0.00 | 10 | 1010.0 |
| 20260503230822 | 98 | 212 | 1.0 | 10.0 | 0.00 | 0.00 | 0.00 | 11 | 1010.1 |
| 20260503230332 | 97 | 187 | 2.0 | 15.0 | 0.00 | 0.00 | 0.00 | 11 | 1010.2 |
| 20260503225820 | 98 | 189 | 5.0 | 15.0 | 0.00 | 0.00 | 0.00 | 10 | 1010.3 |
| 20260503225316 | 98 | 228 | 7.0 | 15.0 | 0.00 | 0.00 | 0.00 | 9 | 1010.4 |
| 20260503224843 | 99 | 194 | 1.0 | 7.0 | 0.00 | 0.00 | 0.00 | 10 | 1010.4 |
| 20260503224314 | 98 | 202 | 3.0 | 9.0 | 0.00 | 0.00 | 0.00 | 10 | 1010.7 |
| 20260503223823 | 98 | 179 | 1.0 | 9.0 | 0.00 | 0.00 | 0.00 | 10 | 1010.8 |
| 20260503223315 | 98 | 205 | 4.0 | 11.0 | 0.00 | 0.00 | 0.00 | 10 | 1010.9 |
| 20260503222821 | 98 | 244 | 4.0 | 14.0 | 0.00 | 0.00 | 0.00 | 10 | 1010.9 |
| 20260503222334 | 98 | 253 | 5.0 | 14.0 | 0.00 | 0.00 | 0.00 | 10 | 1011.0 |
| 20260503221822 | 99 | 198 | 5.0 | 14.0 | 0.00 | 0.00 | 0.00 | 10 | 1011.2 |
| 20260503221333 | 99 | 185 | 1.0 | 7.0 | 0.00 | 0.00 | 0.00 | 10 | 1011.2 |
| 20260503220824 | 99 | 186 | 2.0 | 7.0 | 0.00 | 0.00 | 0.00 | 11 | 1011.3 |
| 20260503220336 | 99 | 186 | 4.0 | 7.0 | 0.00 | 0.00 | 0.00 | 10 | 1011.4 |
| 20260503215821 | 98 | 193 | 0.0 | 8.0 | 0.00 | 0.00 | 0.00 | 10 | 1011.6 |
| 20260503215334 | 98 | 193 | 3.0 | 10.0 | 0.00 | 0.00 | 0.00 | 11 | 1011.7 |
| 20260503214820 | 98 | 180 | 1.0 | 15.0 | 0.00 | 0.00 | 0.00 | 10 | 1011.7 |
| 20260503214333 | 97 | 187 | 7.0 | 15.0 | 0.00 | 0.00 | 0.00 | 11 | 1011.9 |
| 20260503213821 | 97 | 186 | 5.0 | 13.0 | 0.00 | 0.00 | 0.00 | 11 | 1012.0 |
| 20260503213333 | 98 | 190 | 5.0 | 10.0 | 0.00 | 0.00 | 0.00 | 11 | 1012.1 |
| 20260503212841 | 98 | 176 | 5.0 | 10.0 | 0.00 | 0.00 | 0.00 | 12 | 1012.0 |
| 20260503212351 | 98 | 172 | 3.0 | 16.0 | 0.00 | 0.00 | 0.00 | 11 | 1012.2 |
| 20260503211817 | 97 | 184 | 5.0 | 16.0 | 0.00 | 0.00 | 0.00 | 12 | 1012.4 |
| 20260503211333 | 97 | 175 | 2.0 | 17.0 | 0.00 | 0.00 | 0.00 | 11 | 1012.4 |
| 20260503210822 | 97 | 207 | 6.0 | 14.0 | 0.00 | 0.00 | 0.00 | 12 | 1012.5 |
| 20260503210333 | 97 | 182 | 4.0 | 14.0 | 0.00 | 0.00 | 0.00 | 12 | 1012.5 |
| 20260503205821 | 97 | 182 | 4.0 | 14.0 | 0.00 | 0.00 | 0.00 | 12 | 1012.7 |
| 20260503205332 | 97 | 188 | 4.0 | 9.0 | 0.00 | 0.00 | 0.00 | 11 | 1012.7 |
| 20260503204820 | 97 | 216 | 3.0 | 8.0 | 0.00 | 0.00 | 0.00 | 12 | 1012.7 |
| 20260503204331 | 97 | 172 | 3.0 | 15.0 | 0.00 | 0.00 | 0.00 | 12 | 1012.8 |
| 20260503203839 | 97 | 179 | 4.0 | 15.0 | 0.00 | 0.00 | 0.00 | 13 | 1012.9 |
| 20260503203327 | 97 | 179 | 2.0 | 9.0 | 0.00 | 0.00 | 0.00 | 13 | 1012.9 |
| 20260503202834 | 97 | 181 | 3.0 | 7.0 | 0.00 | 0.00 | 0.00 | 13 | 1012.9 |
| 20260503202324 | 97 | 187 | 2.0 | 8.0 | 0.00 | 0.00 | 0.00 | 13 | 1013.0 |
| 20260503201831 | 96 | 169 | 1.0 | 9.0 | 0.00 | 0.00 | 0.00 | 13 | 1013.1 |
| 20260503201320 | 96 | 133 | 2.0 | 8.0 | 0.00 | 0.00 | 0.00 | 13 | 1013.2 |
| 20260503200833 | 95 | 175 | 2.0 | 6.0 | 0.00 | 0.00 | 0.00 | 13 | 1013.3 |
| 20260503200323 | 95 | 184 | 1.0 | 14.0 | 0.00 | 0.00 | 0.00 | 14 | 1013.4 |
| 20260503195830 | 94 | 171 | 6.0 | 14.0 | 0.00 | 0.00 | 0.00 | 14 | 1013.4 |
| 20260503195342 | 95 | 193 | 5.0 | 10.0 | 0.00 | 0.00 | 0.00 | 14 | 1013.3 |
| 20260503194828 | 95 | 185 | 4.0 | 8.0 | 0.00 | 0.00 | 0.00 | 14 | 1013.4 |
| 20260503194320 | 94 | 196 | 4.0 | 13.0 | 0.00 | 0.00 | 0.00 | 16 | 1013.5 |
| 20260503193828 | 94 | 221 | 6.0 | 13.0 | 0.00 | 0.00 | 0.00 | 14 | 1013.6 |
| 20260503193319 | 95 | 184 | 4.0 | 11.0 | 0.00 | 0.00 | 0.00 | 13 | 1013.7 |
| 20260503192847 | 95 | 189 | 4.0 | 10.0 | 0.00 | 0.00 | 0.00 | 14 | 1013.8 |
| 20260503192318 | 94 | 192 | 2.0 | 10.0 | 0.00 | 0.00 | 0.00 | 15 | 1014.0 |
| 20260503191845 | 94 | 73 | 2.0 | 6.0 | 0.00 | 0.00 | 0.00 | 16 | 1013.9 |
| 20260503191316 | 93 | 111 | 1.0 | 5.0 | 0.00 | 0.00 | 0.00 | 17 | 1014.1 |
| 20260503190328 | 92 | 159 | 2.0 | 6.0 | 0.00 | 0.00 | 0.00 | 17 | 1014.2 |
| 20260503185840 | 92 | 117 | 0.0 | 9.0 | 0.00 | 0.00 | 0.00 | 19 | 1014.2 |
| 20260503185331 | 91 | 140 | 2.0 | 5.0 | 0.00 | 0.00 | 0.00 | 18 | 1014.3 |
| 20260503184819 | 91 | 166 | 1.0 | 5.0 | 0.00 | 0.00 | 0.00 | 19 | 1014.4 |
| 20260503184330 | 91 | 122 | 1.0 | 5.0 | 0.00 | 0.00 | 0.00 | 19 | 1014.5 |
| 20260503183819 | 91 | 143 | 1.0 | 5.0 | 0.00 | 0.00 | 0.00 | 20 | 1014.6 |
| 20260503183352 | 90 | 84 | 0.0 | 7.0 | 0.00 | 0.00 | 0.00 | 20 | 1014.7 |
| 20260503182819 | 90 | 84 | 4.0 | 7.0 | 0.00 | 0.00 | 0.00 | 19 | 1014.7 |
| 20260503182332 | 91 | 86 | 2.0 | 9.0 | 0.00 | 0.00 | 0.00 | 19 | 1014.9 |
| 20260503181820 | 90 | 103 | 4.0 | 9.0 | 0.00 | 0.00 | 0.00 | 20 | 1015.0 |
| 20260503181317 | 90 | 88 | 2.0 | 6.0 | 0.00 | 0.00 | 0.00 | 20 | 1015.1 |
| 20260503180825 | 90 | 128 | 1.0 | 6.0 | 0.00 | 0.00 | 0.00 | 20 | 1015.1 |
| 20260503180317 | 89 | 182 | 2.0 | 7.0 | 0.00 | 0.00 | 0.00 | 21 | 1015.1 |
| 20260503175825 | 89 | 142 | 2.0 | 6.0 | 0.00 | 0.00 | 0.00 | 20 | 1015.2 |
| 20260503175338 | 89 | 175 | 3.0 | 8.0 | 0.00 | 0.00 | 0.00 | 21 | 1015.1 |
| 20260503174823 | 89 | 112 | 3.0 | 8.0 | 0.00 | 0.00 | 0.00 | 20 | 1015.2 |
| 20260503174316 | 89 | 138 | 2.0 | 7.0 | 0.00 | 0.00 | 0.00 | 20 | 1015.3 |
| 20260503173824 | 89 | 132 | 2.0 | 7.0 | 0.00 | 0.00 | 0.00 | 20 | 1015.3 |
| 20260503173315 | 88 | 101 | 1.0 | 7.0 | 0.00 | 0.00 | 0.00 | 21 | 1015.3 |
| 20260503172820 | 88 | 109 | 3.0 | 7.0 | 0.00 | 0.00 | 0.00 | 21 | 1015.3 |
| 20260503172333 | 88 | 101 | 2.0 | 10.0 | 0.00 | 0.00 | 0.00 | 21 | 1015.3 |
| 20260503171820 | 87 | 108 | 3.0 | 10.0 | 0.00 | 0.00 | 0.00 | 21 | 1015.3 |
| 20260503171315 | 87 | 111 | 2.0 | 12.0 | 0.00 | 0.00 | 0.00 | 21 | 1015.4 |
| 20260503170821 | 87 | 109 | 2.0 | 12.0 | 0.00 | 0.00 | 0.00 | 21 | 1015.4 |
| 20260503170333 | 87 | 84 | 3.0 | 8.0 | 0.00 | 0.00 | 0.00 | 22 | 1015.5 |
| 20260503150819 | 80 | 92 | 2.0 | 10.0 | 0.00 | 0.00 | 0.00 | 28 | 1015.6 |
| 20260503150332 | 80 | 74 | 3.0 | 10.0 | 0.00 | 0.00 | 0.00 | 27 | 1015.6 |
| 20260503131314 | 77 | 95 | 1.0 | 7.0 | 0.00 | 0.00 | 0.00 | 29 | 1014.9 |
| 20260503130822 | 77 | 86 | 2.0 | 7.0 | 0.00 | 0.00 | 0.00 | 29 | 1015.0 |
| 20260503130336 | 77 | 90 | 1.0 | 7.0 | 0.00 | 0.00 | 0.00 | 29 | 1014.9 |
| 20260503110826 | 77 | 96 | 1.0 | 3.0 | 0.00 | 0.00 | 0.00 | 28 | 1014.6 |
| 20260503110338 | 77 | 96 | 1.0 | 4.0 | 0.00 | 0.00 | 0.00 | 28 | 1014.6 |
| 20260503090325 | 78 | 94 | 2.0 | 7.0 | 0.00 | 0.00 | 0.00 | 23 | 1014.2 |
| 20260503081326 | 76 | 101 | 1.0 | 4.0 | 0.00 | 0.00 | 0.00 | 24 | 1014.7 |
| 20260503080854 | 76 | 103 | 1.0 | 3.0 | 0.00 | 0.00 | 0.00 | 24 | 1014.7 |
| 20260503080323 | 76 | 103 | 1.0 | 4.0 | 0.00 | 0.00 | 0.00 | 24 | 1014.8 |